Time,TemperatureF,DewpointF,PressureIn,WindDirection,WindDirectionDegrees,WindSpeedMPH,WindSpeedGustMPH,Humidity,HourlyPrecipIn,Conditions,Clouds,dailyrainin,SoftwareType,DateUTC
2013-06-21 00:01:00,65.3,62.3,30.28,West,262,0.0,5.0,90,0.00,,,0.00,Wunderground v.1.15,2013-06-21 04:01:00,
2013-06-21 00:05:00,65.4,62.4,30.28,West,262,0.0,5.0,90,0.00,,,0.00,Wunderground v.1.15,2013-06-21 04:05:00,
2013-06-21 00:10:00,65.4,62.4,30.28,West,262,0.0,5.0,90,0.00,,,0.00,Wunderground v.1.15,2013-06-21 04:10:00,
2013-06-21 00:15:00,65.4,62.4,30.28,SSW,205,0.0,5.0,90,0.00,,,0.00,Wunderground v.1.15,2013-06-21 04:15:00,
2013-06-21 00:20:00,65.4,62.1,30.28,SSW,205,0.0,5.0,89,0.00,,,0.00,Wunderground v.1.15,2013-06-21 04:20:00,
2013-06-21 00:25:00,65.4,62.1,30.28,South,189,0.0,5.0,89,0.00,,,0.00,Wunderground v.1.15,2013-06-21 04:25:00,
2013-06-21 00:30:00,65.5,62.2,30.28,South,189,0.0,5.0,89,0.00,,,0.00,Wunderground v.1.15,2013-06-21 04:30:00,
2013-06-21 00:35:00,65.5,61.9,30.28,South,189,0.0,5.0,88,0.00,,,0.00,Wunderground v.1.15,2013-06-21 04:35:00,
2013-06-21 00:40:00,65.5,61.9,30.28,South,189,0.0,5.0,88,0.00,,,0.00,Wunderground v.1.15,2013-06-21 04:40:00,
2013-06-21 00:45:00,65.4,61.8,30.28,South,189,0.0,5.0,88,0.00,,,0.00,Wunderground v.1.15,2013-06-21 04:45:00,
2013-06-21 00:50:00,65.4,61.8,30.28,South,191,0.0,5.0,88,0.00,,,0.00,Wunderground v.1.15,2013-06-21 04:50:00,
2013-06-21 00:55:00,65.3,61.7,30.28,South,191,0.0,5.0,88,0.00,,,0.00,Wunderground v.1.15,2013-06-21 04:55:00,
2013-06-21 01:01:00,65.2,61.9,30.28,South,191,0.0,5.0,89,0.00,,,0.00,Wunderground v.1.15,2013-06-21 05:01:00,
2013-06-21 01:05:00,65.2,61.9,30.27,South,191,0.0,5.0,89,0.00,,,0.00,Wunderground v.1.15,2013-06-21 05:05:00,
2013-06-21 01:10:00,65.2,61.9,30.28,South,191,0.0,5.0,89,0.00,,,0.00,Wunderground v.1.15,2013-06-21 05:10:00,
2013-06-21 01:15:00,65.1,61.8,30.28,South,191,0.0,5.0,89,0.00,,,0.00,Wunderground v.1.15,2013-06-21 05:15:00,
2013-06-21 01:25:00,65.0,61.7,30.28,South,191,0.0,5.0,89,0.00,,,0.00,Wunderground v.1.15,2013-06-21 05:25:00,
2013-06-21 01:30:00,65.0,61.7,30.28,South,191,0.0,5.0,89,0.00,,,0.00,Wunderground v.1.15,2013-06-21 05:30:00,
2013-06-21 01:35:00,65.0,61.4,30.27,South,191,0.0,5.0,88,0.00,,,0.00,Wunderground v.1.15,2013-06-21 05:35:00,
2013-06-21 01:40:00,65.0,61.4,30.27,South,191,0.0,5.0,88,0.00,,,0.00,Wunderground v.1.15,2013-06-21 05:40:00,
2013-06-21 01:45:00,65.0,61.7,30.27,South,191,0.0,5.0,89,0.00,,,0.00,Wunderground v.1.15,2013-06-21 05:45:00,
2013-06-21 01:50:00,64.9,61.6,30.27,South,191,0.0,5.0,89,0.00,,,0.00,Wunderground v.1.15,2013-06-21 05:50:00,
2013-06-21 01:55:00,64.9,61.6,30.27,South,191,0.0,5.0,89,0.00,,,0.00,Wunderground v.1.15,2013-06-21 05:55:00,
2013-06-21 02:01:00,64.9,61.6,30.27,South,191,0.0,5.0,89,0.00,,,0.00,Wunderground v.1.15,2013-06-21 06:01:00,
2013-06-21 02:05:00,64.7,61.4,30.26,South,191,0.0,5.0,89,0.00,,,0.00,Wunderground v.1.15,2013-06-21 06:05:00,
2013-06-21 02:10:00,64.7,61.4,30.26,South,191,0.0,5.0,89,0.00,,,0.00,Wunderground v.1.15,2013-06-21 06:10:00,
2013-06-21 02:15:00,64.5,61.2,30.26,South,191,0.0,5.0,89,0.00,,,0.00,Wunderground v.1.15,2013-06-21 06:15:00,
2013-06-21 02:25:00,64.2,61.2,30.26,South,191,0.0,5.0,90,0.00,,,0.00,Wunderground v.1.15,2013-06-21 06:25:00,
2013-06-21 02:30:00,64.1,61.1,30.26,South,191,0.0,5.0,90,0.00,,,0.00,Wunderground v.1.15,2013-06-21 06:30:00,
2013-06-21 02:35:00,64.0,61.3,30.26,South,191,0.0,5.0,91,0.00,,,0.00,Wunderground v.1.15,2013-06-21 06:35:00,
2013-06-21 02:40:00,64.0,61.3,30.26,South,191,0.0,5.0,91,0.00,,,0.00,Wunderground v.1.15,2013-06-21 06:40:00,
2013-06-21 02:45:00,63.9,61.2,30.26,South,191,0.0,5.0,91,0.00,,,0.00,Wunderground v.1.15,2013-06-21 06:45:00,
2013-06-21 02:55:00,63.8,61.1,30.26,South,191,0.0,5.0,91,0.00,,,0.00,Wunderground v.1.15,2013-06-21 06:55:00,
2013-06-21 03:01:00,63.9,61.2,30.26,South,191,0.0,5.0,91,0.00,,,0.00,Wunderground v.1.15,2013-06-21 07:01:00,
2013-06-21 03:05:00,64.0,61.3,30.26,South,191,0.0,5.0,91,0.00,,,0.00,Wunderground v.1.15,2013-06-21 07:05:00,
2013-06-21 03:10:00,64.0,61.3,30.26,South,191,0.0,5.0,91,0.00,,,0.00,Wunderground v.1.15,2013-06-21 07:10:00,
2013-06-21 03:15:00,64.0,61.6,30.26,South,191,0.0,5.0,92,0.00,,,0.00,Wunderground v.1.15,2013-06-21 07:15:00,
2013-06-21 03:20:00,64.0,61.6,30.26,South,191,0.0,5.0,92,0.00,,,0.00,Wunderground v.1.15,2013-06-21 07:20:00,
2013-06-21 03:25:00,64.0,61.6,30.26,South,191,0.0,5.0,92,0.00,,,0.00,Wunderground v.1.15,2013-06-21 07:25:00,
2013-06-21 03:30:00,63.9,61.5,30.26,South,191,0.0,5.0,92,0.00,,,0.00,Wunderground v.1.15,2013-06-21 07:30:00,
2013-06-21 03:35:00,63.7,61.3,30.26,South,191,0.0,5.0,92,0.00,,,0.00,Wunderground v.1.15,2013-06-21 07:35:00,
2013-06-21 03:40:00,63.6,61.5,30.26,South,191,0.0,5.0,93,0.00,,,0.00,Wunderground v.1.15,2013-06-21 07:40:00,
2013-06-21 03:45:00,63.5,61.4,30.26,South,191,0.0,5.0,93,0.00,,,0.00,Wunderground v.1.15,2013-06-21 07:45:00,
2013-06-21 03:50:00,63.5,61.7,30.26,South,191,0.0,5.0,94,0.00,,,0.00,Wunderground v.1.15,2013-06-21 07:50:00,
2013-06-21 03:55:00,63.5,61.7,30.26,South,191,0.0,5.0,94,0.00,,,0.00,Wunderground v.1.15,2013-06-21 07:55:00,
2013-06-21 04:01:00,63.4,61.6,30.26,South,191,0.0,5.0,94,0.00,,,0.00,Wunderground v.1.15,2013-06-21 08:01:00,
2013-06-21 04:10:00,63.4,61.6,30.26,South,191,0.0,5.0,94,0.00,,,0.00,Wunderground v.1.15,2013-06-21 08:10:00,
2013-06-21 04:15:00,63.3,61.5,30.26,South,191,0.0,5.0,94,0.00,,,0.00,Wunderground v.1.15,2013-06-21 08:15:00,
2013-06-21 04:20:00,63.3,61.5,30.26,South,191,0.0,5.0,94,0.00,,,0.00,Wunderground v.1.15,2013-06-21 08:20:00,
2013-06-21 04:25:00,63.3,61.5,30.26,South,191,0.0,5.0,94,0.00,,,0.00,Wunderground v.1.15,2013-06-21 08:25:00,
2013-06-21 04:30:00,63.3,61.5,30.26,South,191,0.0,5.0,94,0.00,,,0.00,Wunderground v.1.15,2013-06-21 08:30:00,
2013-06-21 04:35:00,63.4,61.6,30.26,South,191,0.0,5.0,94,0.00,,,0.00,Wunderground v.1.15,2013-06-21 08:35:00,
2013-06-21 04:40:00,63.4,61.3,30.26,South,191,0.0,5.0,93,0.00,,,0.00,Wunderground v.1.15,2013-06-21 08:40:00,
2013-06-21 04:45:00,63.3,61.2,30.26,South,191,0.0,5.0,93,0.00,,,0.00,Wunderground v.1.15,2013-06-21 08:45:00,
2013-06-21 04:50:00,63.2,61.1,30.26,South,191,0.0,5.0,93,0.00,,,0.00,Wunderground v.1.15,2013-06-21 08:50:00,
2013-06-21 04:55:00,63.1,61.0,30.26,South,191,0.0,5.0,93,0.00,,,0.00,Wunderground v.1.15,2013-06-21 08:55:00,
2013-06-21 05:01:00,63.0,61.2,30.26,South,191,0.0,5.0,94,0.00,,,0.00,Wunderground v.1.15,2013-06-21 09:01:00,
2013-06-21 05:05:00,63.0,61.2,30.26,South,191,0.0,5.0,94,0.00,,,0.00,Wunderground v.1.15,2013-06-21 09:05:00,
2013-06-21 05:10:00,62.9,61.1,30.26,South,191,0.0,5.0,94,0.00,,,0.00,Wunderground v.1.15,2013-06-21 09:10:00,
2013-06-21 05:20:00,62.9,61.1,30.26,South,191,0.0,5.0,94,0.00,,,0.00,Wunderground v.1.15,2013-06-21 09:20:00,
2013-06-21 05:25:00,62.8,61.0,30.26,South,191,0.0,5.0,94,0.00,,,0.00,Wunderground v.1.15,2013-06-21 09:25:00,
2013-06-21 05:30:00,62.8,61.0,30.27,South,191,0.0,5.0,94,0.00,,,0.00,Wunderground v.1.15,2013-06-21 09:30:00,
2013-06-21 05:35:00,62.7,60.9,30.27,South,191,0.0,5.0,94,0.00,,,0.00,Wunderground v.1.15,2013-06-21 09:35:00,
2013-06-21 05:40:00,62.7,60.9,30.27,South,191,0.0,5.0,94,0.00,,,0.00,Wunderground v.1.15,2013-06-21 09:40:00,
2013-06-21 05:45:00,62.7,60.9,30.27,South,191,0.0,5.0,94,0.00,,,0.00,Wunderground v.1.15,2013-06-21 09:45:00,
2013-06-21 05:55:00,62.7,60.9,30.27,South,191,0.0,5.0,94,0.00,,,0.00,Wunderground v.1.15,2013-06-21 09:55:00,
2013-06-21 06:01:00,62.6,61.4,30.27,South,191,0.0,5.0,96,0.00,,,0.00,Wunderground v.1.15,2013-06-21 10:01:00,
2013-06-21 06:05:00,62.5,60.7,30.27,South,191,0.0,5.0,94,0.00,,,0.00,Wunderground v.1.15,2013-06-21 10:05:00,
2013-06-21 06:10:00,62.3,60.6,30.27,South,191,0.0,5.0,94,0.00,,,0.00,Wunderground v.1.15,2013-06-21 10:10:00,
2013-06-21 06:15:00,62.1,60.4,30.27,South,191,0.0,5.0,94,0.00,,,0.00,Wunderground v.1.15,2013-06-21 10:15:00,
2013-06-21 06:20:00,62.0,60.3,30.28,South,191,0.0,5.0,94,0.00,,,0.00,Wunderground v.1.15,2013-06-21 10:20:00,
2013-06-21 06:25:00,61.9,60.5,30.28,South,191,0.0,5.0,95,0.00,,,0.00,Wunderground v.1.15,2013-06-21 10:25:00,
2013-06-21 06:30:00,61.8,60.4,30.28,South,191,0.0,5.0,95,0.00,,,0.00,Wunderground v.1.15,2013-06-21 10:30:00,
2013-06-21 06:35:00,61.8,60.4,30.28,South,191,0.0,5.0,95,0.00,,,0.00,Wunderground v.1.15,2013-06-21 10:35:00,
2013-06-21 06:40:00,61.8,60.6,30.28,South,191,0.0,5.0,96,0.00,,,0.00,Wunderground v.1.15,2013-06-21 10:40:00,
2013-06-21 06:45:00,61.9,60.7,30.28,South,191,0.0,5.0,96,0.00,,,0.00,Wunderground v.1.15,2013-06-21 10:45:00,
2013-06-21 06:50:00,61.9,60.7,30.28,South,191,0.0,5.0,96,0.00,,,0.00,Wunderground v.1.15,2013-06-21 10:50:00,
2013-06-21 07:01:00,61.9,60.7,30.28,South,191,0.0,5.0,96,0.00,,,0.00,Wunderground v.1.15,2013-06-21 11:01:00,
2013-06-21 07:05:00,61.9,60.7,30.28,South,191,0.0,5.0,96,0.00,,,0.00,Wunderground v.1.15,2013-06-21 11:05:00,
2013-06-21 07:10:00,61.9,60.7,30.28,South,191,0.0,5.0,96,0.00,,,0.00,Wunderground v.1.15,2013-06-21 11:10:00,
2013-06-21 07:15:00,61.9,60.7,30.28,South,191,0.0,5.0,96,0.00,,,0.00,Wunderground v.1.15,2013-06-21 11:15:00,
2013-06-21 07:20:00,61.9,60.7,30.29,South,191,0.0,5.0,96,0.00,,,0.00,Wunderground v.1.15,2013-06-21 11:20:00,
2013-06-21 07:30:00,62.0,60.8,30.29,South,191,0.0,5.0,96,0.00,,,0.00,Wunderground v.1.15,2013-06-21 11:30:00,
2013-06-21 07:35:00,62.2,61.0,30.29,South,191,0.0,5.0,96,0.00,,,0.00,Wunderground v.1.15,2013-06-21 11:35:00,
2013-06-21 07:40:00,62.4,61.2,30.29,South,191,0.0,5.0,96,0.00,,,0.00,Wunderground v.1.15,2013-06-21 11:40:00,
2013-06-21 07:45:00,62.5,61.3,30.29,South,191,0.0,5.0,96,0.00,,,0.00,Wunderground v.1.15,2013-06-21 11:45:00,
2013-06-21 07:50:00,62.6,61.4,30.29,South,191,0.0,5.0,96,0.00,,,0.00,Wunderground v.1.15,2013-06-21 11:50:00,
2013-06-21 07:55:00,62.7,61.5,30.30,South,191,0.0,5.0,96,0.00,,,0.00,Wunderground v.1.15,2013-06-21 11:55:00,
2013-06-21 08:01:00,62.8,61.3,30.30,South,191,0.0,5.0,95,0.00,,,0.00,Wunderground v.1.15,2013-06-21 12:01:00,
2013-06-21 08:05:00,62.9,61.4,30.30,South,191,0.0,5.0,95,0.00,,,0.00,Wunderground v.1.15,2013-06-21 12:05:00,
2013-06-21 08:10:00,63.1,61.6,30.30,South,187,0.0,5.0,95,0.00,,,0.00,Wunderground v.1.15,2013-06-21 12:10:00,
2013-06-21 08:15:00,63.3,61.5,30.30,South,187,0.0,5.0,94,0.00,,,0.00,Wunderground v.1.15,2013-06-21 12:15:00,
2013-06-21 08:25:00,63.6,61.8,30.31,South,187,0.0,5.0,94,0.00,,,0.00,Wunderground v.1.15,2013-06-21 12:25:00,
2013-06-21 08:30:00,63.6,61.5,30.31,South,187,0.0,5.0,93,0.00,,,0.00,Wunderground v.1.15,2013-06-21 12:30:00,
2013-06-21 08:35:00,63.6,61.5,30.31,South,187,0.0,5.0,93,0.00,,,0.00,Wunderground v.1.15,2013-06-21 12:35:00,
2013-06-21 08:40:00,63.7,61.6,30.31,SSE,155,0.0,5.0,93,0.00,,,0.00,Wunderground v.1.15,2013-06-21 12:40:00,
2013-06-21 08:45:00,63.9,61.8,30.31,SSE,155,0.0,5.0,93,0.00,,,0.00,Wunderground v.1.15,2013-06-21 12:45:00,
2013-06-21 08:50:00,64.0,61.6,30.31,SSE,155,0.0,5.0,92,0.00,,,0.00,Wunderground v.1.15,2013-06-21 12:50:00,
2013-06-21 08:55:00,64.2,61.8,30.31,SSE,155,0.0,5.0,92,0.00,,,0.00,Wunderground v.1.15,2013-06-21 12:55:00,
2013-06-21 09:01:00,64.5,62.1,30.32,SSE,155,0.0,5.0,92,0.00,,,0.00,Wunderground v.1.15,2013-06-21 13:01:00,
2013-06-21 09:05:00,64.7,62.0,30.31,South,186,0.0,5.0,91,0.00,,,0.00,Wunderground v.1.15,2013-06-21 13:05:00,
2013-06-21 09:10:00,65.0,62.0,30.32,South,186,0.0,5.0,90,0.00,,,0.00,Wunderground v.1.15,2013-06-21 13:10:00,
2013-06-21 09:15:00,65.3,62.3,30.32,South,186,0.0,5.0,90,0.00,,,0.00,Wunderground v.1.15,2013-06-21 13:15:00,
2013-06-21 09:20:00,65.7,62.4,30.32,SW,225,0.0,5.0,89,0.00,,,0.00,Wunderground v.1.15,2013-06-21 13:20:00,
2013-06-21 09:25:00,65.8,62.1,30.32,SSW,194,0.0,5.0,88,0.00,,,0.00,Wunderground v.1.15,2013-06-21 13:25:00,
2013-06-21 09:30:00,65.8,62.1,30.32,North,5,1.0,1.0,88,0.00,,,0.00,Wunderground v.1.15,2013-06-21 13:30:00,
2013-06-21 09:35:00,65.9,62.2,30.32,East,94,1.0,5.0,88,0.00,,,0.00,Wunderground v.1.15,2013-06-21 13:35:00,
2013-06-21 09:41:00,66.0,62.3,30.32,SSW,207,1.0,1.0,88,0.00,,,0.00,Wunderground v.1.15,2013-06-21 13:41:00,
2013-06-21 09:45:00,66.2,62.5,30.32,SW,234,1.0,3.0,88,0.00,,,0.00,Wunderground v.1.15,2013-06-21 13:45:00,
2013-06-21 09:50:00,66.2,62.2,30.31,SW,234,1.0,1.0,87,0.00,,,0.00,Wunderground v.1.15,2013-06-21 13:50:00,
2013-06-21 09:55:00,66.3,62.3,30.32,WNW,298,1.0,5.0,87,0.00,,,0.00,Wunderground v.1.15,2013-06-21 13:55:00,
2013-06-21 10:01:00,66.3,62.3,30.31,South,189,0.0,5.0,87,0.00,,,0.00,Wunderground v.1.15,2013-06-21 14:01:00,
2013-06-21 10:05:00,66.5,62.5,30.32,South,190,0.0,5.0,87,0.00,,,0.00,Wunderground v.1.15,2013-06-21 14:05:00,
2013-06-21 10:10:00,67.0,62.7,30.32,SSW,207,0.0,5.0,86,0.00,,,0.00,Wunderground v.1.15,2013-06-21 14:10:00,
2013-06-21 10:15:00,67.5,62.8,30.32,SSW,207,0.0,5.0,85,0.00,,,0.00,Wunderground v.1.15,2013-06-21 14:15:00,
2013-06-21 10:20:00,68.0,63.3,30.31,SSW,207,0.0,5.0,85,0.00,,,0.00,Wunderground v.1.15,2013-06-21 14:20:00,
2013-06-21 10:25:00,68.6,63.6,30.31,SSW,207,0.0,5.0,84,0.00,,,0.00,Wunderground v.1.15,2013-06-21 14:25:00,
2013-06-21 10:35:00,69.1,63.0,30.31,SW,220,0.0,5.0,81,0.00,,,0.00,Wunderground v.1.15,2013-06-21 14:35:00,
2013-06-21 10:40:00,69.3,62.1,30.31,South,179,0.0,5.0,78,0.00,,,0.00,Wunderground v.1.15,2013-06-21 14:40:00,
2013-06-21 10:45:00,69.4,63.0,30.31,South,179,0.0,5.0,80,0.00,,,0.00,Wunderground v.1.15,2013-06-21 14:45:00,
2013-06-21 10:50:00,69.5,63.1,30.31,South,179,0.0,5.0,80,0.00,,,0.00,Wunderground v.1.15,2013-06-21 14:50:00,
2013-06-21 10:55:00,69.6,62.8,30.32,South,179,0.0,5.0,79,0.00,,,0.00,Wunderground v.1.15,2013-06-21 14:55:00,
2013-06-21 11:01:00,69.6,61.7,30.32,SE,146,0.0,5.0,76,0.00,,,0.00,Wunderground v.1.15,2013-06-21 15:01:00,
2013-06-21 11:05:00,69.7,61.8,30.31,SE,126,0.0,5.0,76,0.00,,,0.00,Wunderground v.1.15,2013-06-21 15:05:00,
2013-06-21 11:11:00,69.5,62.3,30.32,SE,125,0.0,5.0,78,0.00,,,0.00,Wunderground v.1.15,2013-06-21 15:11:00,
2013-06-21 11:15:00,70.0,62.8,30.32,SSW,201,1.0,5.0,78,0.00,,,0.00,Wunderground v.1.15,2013-06-21 15:15:00,
2013-06-21 11:20:00,70.3,63.1,30.32,SSW,201,0.0,5.0,78,0.00,,,0.00,Wunderground v.1.15,2013-06-21 15:20:00,
2013-06-21 11:25:00,70.5,63.3,30.31,SSW,201,0.0,5.0,78,0.00,,,0.00,Wunderground v.1.15,2013-06-21 15:25:00,
2013-06-21 11:30:00,70.7,62.8,30.31,NNW,347,1.0,1.0,76,0.00,,,0.00,Wunderground v.1.15,2013-06-21 15:30:00,
2013-06-21 11:35:00,71.3,63.7,30.31,NNW,341,1.0,5.0,77,0.00,,,0.00,Wunderground v.1.15,2013-06-21 15:35:00,
2013-06-21 11:40:00,71.9,62.4,30.31,ESE,122,1.0,5.0,72,0.00,,,0.00,Wunderground v.1.15,2013-06-21 15:40:00,
2013-06-21 11:50:00,72.6,63.4,30.32,NW,323,0.0,5.0,73,0.00,,,0.00,Wunderground v.1.15,2013-06-21 15:50:00,
2013-06-21 11:55:00,73.0,63.8,30.32,SSE,157,1.0,5.0,73,0.00,,,0.00,Wunderground v.1.15,2013-06-21 15:55:00,
2013-06-21 12:01:00,73.7,63.7,30.32,SSE,158,1.0,1.0,71,0.00,,,0.00,Wunderground v.1.15,2013-06-21 16:01:00,
2013-06-21 12:05:00,74.3,63.5,30.32,West,271,0.0,5.0,69,0.00,,,0.00,Wunderground v.1.15,2013-06-21 16:05:00,
2013-06-21 12:10:00,74.1,62.4,30.32,WSW,239,1.0,5.0,67,0.00,,,0.00,Wunderground v.1.15,2013-06-21 16:10:00,
2013-06-21 12:15:00,74.6,63.8,30.31,WSW,239,0.0,5.0,69,0.00,,,0.00,Wunderground v.1.15,2013-06-21 16:15:00,
2013-06-21 12:20:00,75.0,63.3,30.31,East,100,0.0,5.0,67,0.00,,,0.00,Wunderground v.1.15,2013-06-21 16:20:00,
2013-06-21 12:25:00,74.3,63.1,30.31,East,92,0.0,5.0,68,0.00,,,0.00,Wunderground v.1.15,2013-06-21 16:25:00,
2013-06-21 12:30:00,73.8,62.2,30.31,East,92,0.0,5.0,67,0.00,,,0.00,Wunderground v.1.15,2013-06-21 16:30:00,
2013-06-21 12:35:00,73.4,62.2,30.31,East,92,0.0,5.0,68,0.00,,,0.00,Wunderground v.1.15,2013-06-21 16:35:00,
2013-06-21 12:40:00,73.3,63.3,30.31,ENE,78,0.0,5.0,71,0.00,,,0.00,Wunderground v.1.15,2013-06-21 16:40:00,
2013-06-21 12:45:00,73.6,63.2,30.31,North,11,1.0,5.0,70,0.00,,,0.00,Wunderground v.1.15,2013-06-21 16:45:00,
2013-06-21 12:50:00,74.1,63.7,30.31,SW,236,2.0,2.0,70,0.00,,,0.00,Wunderground v.1.15,2013-06-21 16:50:00,
2013-06-21 12:55:00,74.2,62.5,30.30,ESE,105,1.0,5.0,67,0.00,,,0.00,Wunderground v.1.15,2013-06-21 16:55:00,
2013-06-21 13:01:00,75.2,63.5,30.31,ENE,78,0.0,5.0,67,0.00,,,0.00,Wunderground v.1.15,2013-06-21 17:01:00,
2013-06-21 13:11:00,75.5,62.5,30.31,North,360,1.0,1.0,64,0.00,,,0.00,Wunderground v.1.15,2013-06-21 17:11:00,
2013-06-21 13:20:00,75.7,62.7,30.30,North,360,1.0,1.0,64,0.00,,,0.00,Wunderground v.1.15,2013-06-21 17:20:00,
2013-06-21 13:25:00,75.4,63.2,30.31,ENE,72,1.0,5.0,66,0.00,,,0.00,Wunderground v.1.15,2013-06-21 17:25:00,
2013-06-21 13:30:00,75.5,63.3,30.30,NE,47,0.0,5.0,66,0.00,,,0.00,Wunderground v.1.15,2013-06-21 17:30:00,
2013-06-21 13:40:00,75.4,61.0,30.30,South,174,1.0,5.0,61,0.00,,,0.00,Wunderground v.1.15,2013-06-21 17:40:00,
2013-06-21 13:50:00,75.3,63.2,30.30,South,191,1.0,5.0,66,0.00,,,0.00,Wunderground v.1.15,2013-06-21 17:50:00,
2013-06-21 14:01:00,76.2,62.7,30.30,West,277,1.0,1.0,63,0.00,,,0.00,Wunderground v.1.15,2013-06-21 18:01:00,
2013-06-21 14:05:00,76.8,61.4,30.30,SW,228,1.0,5.0,59,0.00,,,0.00,Wunderground v.1.15,2013-06-21 18:05:00,
2013-06-21 14:10:00,76.7,61.3,30.30,West,263,1.0,5.0,59,0.00,,,0.00,Wunderground v.1.15,2013-06-21 18:10:00,
2013-06-21 14:20:00,76.7,61.3,30.29,NNE,17,1.0,5.0,59,0.00,,,0.00,Wunderground v.1.15,2013-06-21 18:20:00,
2013-06-21 14:25:00,77.0,61.6,30.28,SSE,151,1.0,5.0,59,0.00,,,0.00,Wunderground v.1.15,2013-06-21 18:25:00,
2013-06-21 14:30:00,77.3,60.4,30.28,WNW,298,1.0,5.0,56,0.00,,,0.00,Wunderground v.1.15,2013-06-21 18:30:00,
2013-06-21 14:45:00,76.9,62.4,30.28,North,5,1.0,5.0,61,0.00,,,0.00,Wunderground v.1.15,2013-06-21 18:45:00,
2013-06-21 14:50:00,77.4,62.4,30.28,North,5,1.0,1.0,60,0.00,,,0.00,Wunderground v.1.15,2013-06-21 18:50:00,
2013-06-21 14:55:00,78.2,62.7,30.28,East,79,0.0,5.0,59,0.00,,,0.00,Wunderground v.1.15,2013-06-21 18:55:00,
2013-06-21 15:01:00,78.6,63.1,30.27,WSW,250,1.0,5.0,59,0.00,,,0.00,Wunderground v.1.15,2013-06-21 19:01:00,
2013-06-21 15:05:00,78.8,61.8,30.27,SW,225,1.0,5.0,56,0.00,,,0.00,Wunderground v.1.15,2013-06-21 19:05:00,
2013-06-21 15:10:00,78.5,62.0,30.27,South,173,1.0,1.0,57,0.00,,,0.00,Wunderground v.1.15,2013-06-21 19:10:00,
2013-06-21 15:15:00,78.1,62.1,30.27,South,173,1.0,5.0,58,0.00,,,0.00,Wunderground v.1.15,2013-06-21 19:15:00,
2013-06-21 15:20:00,78.4,62.9,30.27,SSW,195,0.0,5.0,59,0.00,,,0.00,Wunderground v.1.15,2013-06-21 19:20:00,
2013-06-21 15:25:00,78.9,62.9,30.27,SSW,207,1.0,5.0,58,0.00,,,0.00,Wunderground v.1.15,2013-06-21 19:25:00,
2013-06-21 15:30:00,79.3,62.7,30.26,SSW,213,1.0,5.0,57,0.00,,,0.00,Wunderground v.1.15,2013-06-21 19:30:00,
2013-06-21 15:35:00,79.2,63.6,30.26,NNW,338,1.0,5.0,59,0.00,,,0.00,Wunderground v.1.15,2013-06-21 19:35:00,
2013-06-21 15:40:00,79.5,62.4,30.26,WNW,291,1.0,1.0,56,0.00,,,0.00,Wunderground v.1.15,2013-06-21 19:40:00,
2013-06-21 15:45:00,79.7,63.1,30.26,West,267,1.0,5.0,57,0.00,,,0.00,Wunderground v.1.15,2013-06-21 19:45:00,
2013-06-21 15:50:00,79.9,63.8,30.26,West,265,0.0,5.0,58,0.00,,,0.00,Wunderground v.1.15,2013-06-21 19:50:00,
2013-06-21 16:01:00,80.2,62.0,30.26,SW,217,1.0,5.0,54,0.00,,,0.00,Wunderground v.1.15,2013-06-21 20:01:00,
2013-06-21 16:05:00,79.9,62.8,30.26,SW,217,1.0,5.0,56,0.00,,,0.00,Wunderground v.1.15,2013-06-21 20:05:00,
2013-06-21 16:10:00,79.4,60.8,30.26,NNE,29,0.0,5.0,53,0.00,,,0.00,Wunderground v.1.15,2013-06-21 20:10:00,
2013-06-21 16:15:00,79.7,63.1,30.26,NNE,29,0.0,5.0,57,0.00,,,0.00,Wunderground v.1.15,2013-06-21 20:15:00,
2013-06-21 16:20:00,80.5,63.4,30.26,SSW,200,0.0,5.0,56,0.00,,,0.00,Wunderground v.1.15,2013-06-21 20:20:00,
2013-06-21 16:25:00,80.7,62.5,30.25,ESE,110,1.0,5.0,54,0.00,,,0.00,Wunderground v.1.15,2013-06-21 20:25:00,
2013-06-21 16:30:00,81.0,63.8,30.25,SSE,167,1.0,5.0,56,0.00,,,0.00,Wunderground v.1.15,2013-06-21 20:30:00,
2013-06-21 16:35:00,80.5,61.8,30.25,ENE,71,1.0,5.0,53,0.00,,,0.00,Wunderground v.1.15,2013-06-21 20:35:00,
2013-06-21 16:40:00,80.3,63.7,30.25,SW,221,0.0,5.0,57,0.00,,,0.00,Wunderground v.1.15,2013-06-21 20:40:00,
2013-06-21 16:45:00,80.0,62.4,30.25,WNW,300,1.0,5.0,55,0.00,,,0.00,Wunderground v.1.15,2013-06-21 20:45:00,
2013-06-21 16:50:00,79.5,61.4,30.24,NNW,331,1.0,1.0,54,0.00,,,0.00,Wunderground v.1.15,2013-06-21 20:50:00,
2013-06-21 17:01:00,78.6,63.1,30.24,SW,221,1.0,1.0,59,0.00,,,0.00,Wunderground v.1.15,2013-06-21 21:01:00,
2013-06-21 17:05:00,78.9,62.4,30.24,West,281,1.0,2.0,57,0.00,,,0.00,Wunderground v.1.15,2013-06-21 21:05:00,
2013-06-21 17:10:00,79.2,63.1,30.24,SW,228,0.0,5.0,58,0.00,,,0.00,Wunderground v.1.15,2013-06-21 21:10:00,
2013-06-21 17:15:00,79.2,63.1,30.24,SW,228,0.0,5.0,58,0.00,,,0.00,Wunderground v.1.15,2013-06-21 21:15:00,
2013-06-21 17:20:00,78.8,62.3,30.24,SW,228,0.0,5.0,57,0.00,,,0.00,Wunderground v.1.15,2013-06-21 21:20:00,
2013-06-21 17:25:00,78.3,63.3,30.24,SW,228,0.0,5.0,60,0.00,,,0.00,Wunderground v.1.15,2013-06-21 21:25:00,
2013-06-21 17:30:00,77.4,63.4,30.24,SW,228,0.0,5.0,62,0.00,,,0.00,Wunderground v.1.15,2013-06-21 21:30:00,
2013-06-21 17:35:00,76.7,63.6,30.24,West,268,0.0,5.0,64,0.00,,,0.00,Wunderground v.1.15,2013-06-21 21:35:00,
2013-06-21 17:40:00,77.0,62.0,30.24,West,268,0.0,5.0,60,0.00,,,0.00,Wunderground v.1.15,2013-06-21 21:40:00,
2013-06-21 17:50:00,77.8,63.3,30.24,West,268,0.0,5.0,61,0.00,,,0.00,Wunderground v.1.15,2013-06-21 21:50:00,
2013-06-21 17:55:00,77.8,61.3,30.24,NW,312,0.0,5.0,57,0.00,,,0.00,Wunderground v.1.15,2013-06-21 21:55:00,
2013-06-21 18:01:00,78.2,61.2,30.24,NNW,336,0.0,5.0,56,0.00,,,0.00,Wunderground v.1.15,2013-06-21 22:01:00,
2013-06-21 18:05:00,78.7,62.2,30.23,NNW,336,0.0,5.0,57,0.00,,,0.00,Wunderground v.1.15,2013-06-21 22:05:00,
2013-06-21 18:10:00,78.8,62.3,30.23,NNW,336,0.0,5.0,57,0.00,,,0.00,Wunderground v.1.15,2013-06-21 22:10:00,
2013-06-21 18:15:00,78.9,61.9,30.23,NNW,336,1.0,5.0,56,0.00,,,0.00,Wunderground v.1.15,2013-06-21 22:15:00,
2013-06-21 18:20:00,78.9,61.9,30.23,NNW,336,0.0,5.0,56,0.00,,,0.00,Wunderground v.1.15,2013-06-21 22:20:00,
2013-06-21 18:25:00,78.9,60.8,30.23,NNW,336,0.0,5.0,54,0.00,,,0.00,Wunderground v.1.15,2013-06-21 22:25:00,
2013-06-21 18:30:00,78.9,62.4,30.23,NNW,336,0.0,5.0,57,0.00,,,0.00,Wunderground v.1.15,2013-06-21 22:30:00,
2013-06-21 18:35:00,78.5,62.0,30.23,NNW,336,0.0,5.0,57,0.00,,,0.00,Wunderground v.1.15,2013-06-21 22:35:00,
2013-06-21 18:40:00,78.2,61.2,30.23,NE,55,0.0,5.0,56,0.00,,,0.00,Wunderground v.1.15,2013-06-21 22:40:00,
2013-06-21 18:45:00,78.3,61.8,30.23,ENE,61,0.0,5.0,57,0.00,,,0.00,Wunderground v.1.15,2013-06-21 22:45:00,
2013-06-21 18:50:00,78.4,61.4,30.23,East,100,0.0,5.0,56,0.00,,,0.00,Wunderground v.1.15,2013-06-21 22:50:00,
2013-06-21 18:55:00,78.0,62.0,30.23,East,100,0.0,5.0,58,0.00,,,0.00,Wunderground v.1.15,2013-06-21 22:55:00,
2013-06-21 19:01:00,77.0,62.5,30.23,East,100,0.0,5.0,61,0.00,,,0.00,Wunderground v.1.15,2013-06-21 23:01:00,
2013-06-21 19:10:00,76.0,62.0,30.22,East,100,0.0,5.0,62,0.00,,,0.00,Wunderground v.1.15,2013-06-21 23:10:00,
2013-06-21 19:15:00,75.7,61.3,30.22,East,100,0.0,5.0,61,0.00,,,0.00,Wunderground v.1.15,2013-06-21 23:15:00,
2013-06-21 19:20:00,75.0,60.2,30.23,ENE,62,1.0,1.0,60,0.00,,,0.00,Wunderground v.1.15,2013-06-21 23:20:00,
2013-06-21 19:25:00,74.6,61.2,30.23,ENE,59,1.0,5.0,63,0.00,,,0.00,Wunderground v.1.15,2013-06-21 23:25:00,
2013-06-21 19:30:00,74.1,61.6,30.23,ENE,59,0.0,5.0,65,0.00,,,0.00,Wunderground v.1.15,2013-06-21 23:30:00,
2013-06-21 19:35:00,73.7,61.6,30.23,ENE,59,0.0,5.0,66,0.00,,,0.00,Wunderground v.1.15,2013-06-21 23:35:00,
2013-06-21 19:40:00,73.5,61.4,30.23,ENE,59,0.0,5.0,66,0.00,,,0.00,Wunderground v.1.15,2013-06-21 23:40:00,
2013-06-21 19:45:00,73.3,62.1,30.23,ENE,59,0.0,5.0,68,0.00,,,0.00,Wunderground v.1.15,2013-06-21 23:45:00,
2013-06-21 19:50:00,72.8,62.0,30.24,ENE,59,0.0,5.0,69,0.00,,,0.00,Wunderground v.1.15,2013-06-21 23:50:00,
2013-06-21 19:55:00,72.6,61.8,30.23,ENE,59,0.0,5.0,69,0.00,,,0.00,Wunderground v.1.15,2013-06-21 23:55:00,
2013-06-21 20:01:00,72.2,61.5,30.23,ENE,59,0.0,5.0,69,0.00,,,0.00,Wunderground v.1.15,2013-06-22 00:01:00,
2013-06-21 20:05:00,71.9,61.6,30.24,ENE,59,0.0,5.0,70,0.00,,,0.00,Wunderground v.1.15,2013-06-22 00:05:00,
2013-06-21 20:10:00,71.6,61.7,30.24,ENE,59,0.0,5.0,71,0.00,,,0.00,Wunderground v.1.15,2013-06-22 00:10:00,
2013-06-21 20:15:00,71.3,62.2,30.24,ENE,59,0.0,5.0,73,0.00,,,0.00,Wunderground v.1.15,2013-06-22 00:15:00,
2013-06-21 20:20:00,70.9,61.8,30.24,ENE,59,0.0,5.0,73,0.00,,,0.00,Wunderground v.1.15,2013-06-22 00:20:00,
2013-06-21 20:25:00,70.6,61.9,30.23,ENE,59,0.0,5.0,74,0.00,,,0.00,Wunderground v.1.15,2013-06-22 00:25:00,
2013-06-21 20:30:00,70.2,61.9,30.23,ENE,59,0.0,5.0,75,0.00,,,0.00,Wunderground v.1.15,2013-06-22 00:30:00,
2013-06-21 20:35:00,69.9,62.0,30.23,ENE,59,0.0,5.0,76,0.00,,,0.00,Wunderground v.1.15,2013-06-22 00:35:00,
2013-06-21 20:40:00,69.6,62.1,30.23,ENE,59,0.0,5.0,77,0.00,,,0.00,Wunderground v.1.15,2013-06-22 00:40:00,
2013-06-21 20:45:00,69.2,62.0,30.23,ENE,59,0.0,5.0,78,0.00,,,0.00,Wunderground v.1.15,2013-06-22 00:45:00,
2013-06-21 20:50:00,68.9,61.8,30.23,ENE,59,0.0,5.0,78,0.00,,,0.00,Wunderground v.1.15,2013-06-22 00:50:00,
2013-06-21 20:55:00,68.7,61.9,30.23,ENE,59,0.0,5.0,79,0.00,,,0.00,Wunderground v.1.15,2013-06-22 00:55:00,
2013-06-21 21:01:00,68.5,61.7,30.23,ENE,59,0.0,5.0,79,0.00,,,0.00,Wunderground v.1.15,2013-06-22 01:01:00,
2013-06-21 21:05:00,68.3,61.5,30.24,ENE,59,0.0,5.0,79,0.00,,,0.00,Wunderground v.1.15,2013-06-22 01:05:00,
2013-06-21 21:10:00,68.1,61.3,30.24,ENE,59,0.0,5.0,79,0.00,,,0.00,Wunderground v.1.15,2013-06-22 01:10:00,
2013-06-21 21:15:00,67.9,61.5,30.24,ENE,59,0.0,5.0,80,0.00,,,0.00,Wunderground v.1.15,2013-06-22 01:15:00,
2013-06-21 21:20:00,67.7,61.3,30.24,ENE,59,0.0,5.0,80,0.00,,,0.00,Wunderground v.1.15,2013-06-22 01:20:00,
2013-06-21 21:25:00,67.6,61.2,30.25,ENE,59,0.0,5.0,80,0.00,,,0.00,Wunderground v.1.15,2013-06-22 01:25:00,
2013-06-21 21:30:00,67.5,61.1,30.25,ENE,59,0.0,5.0,80,0.00,,,0.00,Wunderground v.1.15,2013-06-22 01:30:00,
2013-06-21 21:35:00,67.4,61.0,30.24,ENE,59,0.0,5.0,80,0.00,,,0.00,Wunderground v.1.15,2013-06-22 01:35:00,
2013-06-21 21:40:00,67.4,61.0,30.25,ENE,59,0.0,5.0,80,0.00,,,0.00,Wunderground v.1.15,2013-06-22 01:40:00,
2013-06-21 21:45:00,67.3,61.3,30.25,ENE,59,0.0,5.0,81,0.00,,,0.00,Wunderground v.1.15,2013-06-22 01:45:00,
2013-06-21 21:50:00,67.2,61.2,30.25,ENE,59,0.0,5.0,81,0.00,,,0.00,Wunderground v.1.15,2013-06-22 01:50:00,
2013-06-21 21:55:00,67.0,61.3,30.25,ENE,59,0.0,5.0,82,0.00,,,0.00,Wunderground v.1.15,2013-06-22 01:55:00,
2013-06-21 22:01:00,66.8,61.5,30.25,ENE,59,0.0,5.0,83,0.00,,,0.00,Wunderground v.1.15,2013-06-22 02:01:00,
2013-06-21 22:05:00,66.8,61.5,30.26,ENE,59,0.0,5.0,83,0.00,,,0.00,Wunderground v.1.15,2013-06-22 02:05:00,
2013-06-21 22:10:00,66.8,61.5,30.26,ENE,59,0.0,5.0,83,0.00,,,0.00,Wunderground v.1.15,2013-06-22 02:10:00,
2013-06-21 22:15:00,66.8,61.5,30.26,ENE,59,0.0,5.0,83,0.00,,,0.00,Wunderground v.1.15,2013-06-22 02:15:00,
2013-06-21 22:20:00,66.7,61.4,30.26,ENE,59,0.0,5.0,83,0.00,,,0.00,Wunderground v.1.15,2013-06-22 02:20:00,
2013-06-21 22:25:00,66.7,61.7,30.26,ENE,59,0.0,5.0,84,0.00,,,0.00,Wunderground v.1.15,2013-06-22 02:25:00,
2013-06-21 22:30:00,66.5,61.5,30.27,ENE,59,0.0,5.0,84,0.00,,,0.00,Wunderground v.1.15,2013-06-22 02:30:00,
2013-06-21 22:35:00,66.5,61.5,30.27,ENE,59,0.0,5.0,84,0.00,,,0.00,Wunderground v.1.15,2013-06-22 02:35:00,
2013-06-21 22:40:00,66.3,61.3,30.27,ENE,59,0.0,5.0,84,0.00,,,0.00,Wunderground v.1.15,2013-06-22 02:40:00,
2013-06-21 22:45:00,66.2,61.2,30.27,ENE,59,0.0,5.0,84,0.00,,,0.00,Wunderground v.1.15,2013-06-22 02:45:00,
2013-06-21 22:50:00,66.1,61.5,30.27,ENE,59,0.0,5.0,85,0.00,,,0.00,Wunderground v.1.15,2013-06-22 02:50:00,
2013-06-21 22:55:00,66.1,61.5,30.27,ENE,59,0.0,5.0,85,0.00,,,0.00,Wunderground v.1.15,2013-06-22 02:55:00,
2013-06-21 23:01:00,66.1,61.5,30.28,ENE,59,0.0,5.0,85,0.00,,,0.00,Wunderground v.1.15,2013-06-22 03:01:00,
2013-06-21 23:05:00,66.1,61.5,30.28,ENE,59,0.0,5.0,85,0.00,,,0.00,Wunderground v.1.15,2013-06-22 03:05:00,
2013-06-21 23:10:00,66.1,61.5,30.28,ENE,59,0.0,5.0,85,0.00,,,0.00,Wunderground v.1.15,2013-06-22 03:10:00,
2013-06-21 23:15:00,66.0,61.4,30.28,ENE,59,0.0,5.0,85,0.00,,,0.00,Wunderground v.1.15,2013-06-22 03:15:00,
2013-06-21 23:25:00,65.9,61.3,30.28,ENE,59,0.0,5.0,85,0.00,,,0.00,Wunderground v.1.15,2013-06-22 03:25:00,
2013-06-21 23:30:00,65.8,61.2,30.28,ENE,59,0.0,5.0,85,0.00,,,0.00,Wunderground v.1.15,2013-06-22 03:30:00,
2013-06-21 23:35:00,65.8,61.2,30.27,ENE,59,0.0,5.0,85,0.00,,,0.00,Wunderground v.1.15,2013-06-22 03:35:00,
2013-06-21 23:40:00,65.7,60.7,30.27,ENE,59,0.0,5.0,84,0.00,,,0.00,Wunderground v.1.15,2013-06-22 03:40:00,
2013-06-21 23:45:00,65.7,60.7,30.27,ENE,59,0.0,5.0,84,0.00,,,0.00,Wunderground v.1.15,2013-06-22 03:45:00,
2013-06-21 23:50:00,65.6,60.6,30.27,ENE,59,0.0,5.0,84,0.00,,,0.00,Wunderground v.1.15,2013-06-22 03:50:00,
2013-06-21 23:55:00,65.6,60.6,30.27,ENE,59,0.0,5.0,84,0.00,,,0.00,Wunderground v.1.15,2013-06-22 03:55:00,